Current Weather Conditions: station 62135

sailwx.info

Wind from 220

Air temperature 13.6° C
Dewpoint 11.7° C

Last reported at 2019-Jun-18 06:00 UTC.
Time now 2019-Jun-18 07:33 UTC

Location: N 54°12' E 001°36'.
View on Google Maps.

See reports from other nearby stations

  
Tides and Currents Weather Stations Pressure Air Temp Water Temp Dewpoint Dewpoint Depression Visibility Wind Speed Wind Dir Waves Ship Positions
date/time (UTC)wind fromknots sea level pressurealtimeterstation pressurevisibilityair tempwater tempwave heightnotes
2019-Jun-18 06:00 220 13.6
2019-Jun-18 05:00 210 13.8
2019-Jun-18 04:00 230 13.7
2019-Jun-18 03:00 210 13.3
2019-Jun-18 02:00 210 13.6
2019-Jun-18 01:00 210 13.9
2019-Jun-18 00:00 190 14.2
2019-Jun-17 23:00 200 14.4
2019-Jun-17 22:00 180 14.4
2019-Jun-17 21:00 170 14.1
2019-Jun-17 20:00 150 14.1
2019-Jun-17 19:00 150 14.4
2019-Jun-17 18:00 140 15.1
2019-Jun-17 17:00 150 14.3
2019-Jun-17 16:00 160 14.2
2019-Jun-17 15:00 180 14.4
2019-Jun-17 14:00 170 13.9
2019-Jun-17 13:00 170 13.8
2019-Jun-17 12:00 170 13.5
2019-Jun-17 11:00 180 13.3
2019-Jun-17 10:00 170 13.2
2019-Jun-17 09:00 170 13.1
2019-Jun-17 08:00 180 13.1
2019-Jun-17 07:00 180 13.1
2019-Jun-17 06:00 180 13.1
2019-Jun-17 05:00 190 13.3
2019-Jun-17 04:00 190 13.0
2019-Jun-17 03:00 190 13.0
2019-Jun-17 02:00 190 13.4
2019-Jun-17 01:00 190 13.9
2019-Jun-17 00:00 190 13.9
2019-Jun-16 23:00 190 14.2
2019-Jun-16 22:00 200 14.2
2019-Jun-16 21:00 180 13.9
2019-Jun-16 20:00 150 13.7
2019-Jun-16 19:00 160 13.9
2019-Jun-16 18:00 160 13.4
2019-Jun-16 17:00 160 13.5
2019-Jun-16 16:00 150 13.5
2019-Jun-16 15:00 130 13.3
2019-Jun-16 14:00 130 13.0
2019-Jun-16 13:00 140 12.8
2019-Jun-16 12:00 150 12.4
2019-Jun-16 11:00 160 12.3
2019-Jun-16 10:00 170 12.4
2019-Jun-16 09:00 200 12.3
2019-Jun-16 08:00 210 12.3
2019-Jun-16 07:00 200 13.8